DLH8RP EDDF-LYTV

Flight info

Callsign DLH8RP
Flight time 1h 36m
Altitude 37000
Route CINDY8S/18 CINDY Z74 LAMPU DCT NOMBO Y161 MAH DCT VAVOR DCT RADIZ DCT GIMIX DCT SABAD DCT NERRA DCT TAZ
Aircraft A319/M-SDE3FGHIRWY/LB1

Departure

Time 2026-05-05 15:32
Airport Frankfurt Main Airport (EDDF)

Arrival

Time 2026-05-05 17:09
Airport Tivat Airport (LYTV)
Time Latitude Longitude Altitude Speed Heading
2026-05-05 14:55 50.04417 8.56275 356 ft 0 kts 162°
2026-05-05 15:17 50.04421 8.56273 356 ft 2 kts 162°
2026-05-05 15:17 50.04439 8.56263 363 ft 3 kts 160°
2026-05-05 15:17 50.04456 8.56254 363 ft 3 kts 163°
2026-05-05 15:17 50.04474 8.56249 364 ft 3 kts 192°
2026-05-05 15:18 50.04489 8.56260 360 ft 3 kts 239°
2026-05-05 15:18 50.04497 8.56288 360 ft 3 kts 258°
2026-05-05 15:18 50.04500 8.56315 360 ft 1 kts 251°
2026-05-05 15:18 50.04501 8.56319 360 ft 0 kts 250°
2026-05-05 15:23 50.04500 8.56313 356 ft 2 kts 248°
2026-05-05 15:23 50.04488 8.56265 356 ft 8 kts 248°
2026-05-05 15:23 50.04462 8.56157 358 ft 13 kts 250°
2026-05-05 15:23 50.04423 8.56037 356 ft 11 kts 218°
2026-05-05 15:24 50.04360 8.56046 357 ft 7 kts 157°
2026-05-05 15:24 50.04338 8.56059 361 ft 0 kts 158°
2026-05-05 15:24 50.04336 8.56060 361 ft 1 kts 158°
2026-05-05 15:24 50.04304 8.56075 359 ft 10 kts 174°
2026-05-05 15:25 50.04249 8.55979 359 ft 16 kts 250°
2026-05-05 15:25 50.04202 8.55786 356 ft 22 kts 249°
2026-05-05 15:25 50.04146 8.55553 355 ft 23 kts 249°
2026-05-05 15:25 50.04094 8.55336 355 ft 20 kts 249°
2026-05-05 15:26 50.04051 8.55156 360 ft 17 kts 250°
2026-05-05 15:26 50.04013 8.54997 355 ft 15 kts 250°
2026-05-05 15:26 50.03976 8.54842 358 ft 17 kts 250°
2026-05-05 15:26 50.03933 8.54661 351 ft 19 kts 250°
2026-05-05 15:27 50.03882 8.54445 347 ft 23 kts 250°
2026-05-05 15:27 50.03804 8.54235 347 ft 22 kts 245°
2026-05-05 15:27 50.03750 8.54020 350 ft 21 kts 250°
2026-05-05 15:27 50.03701 8.53809 347 ft 20 kts 250°
2026-05-05 15:28 50.03648 8.53591 345 ft 23 kts 247°
2026-05-05 15:28 50.03588 8.53349 338 ft 25 kts 249°
2026-05-05 15:28 50.03527 8.53098 336 ft 24 kts 249°
2026-05-05 15:28 50.03472 8.52878 335 ft 15 kts 247°
2026-05-05 15:29 50.03441 8.52763 334 ft 10 kts 249°
2026-05-05 15:29 50.03433 8.52730 333 ft 0 kts 249°
2026-05-05 15:30 50.03428 8.52710 332 ft 4 kts 249°
2026-05-05 15:30 50.03412 8.52645 334 ft 9 kts 248°
2026-05-05 15:31 50.03362 8.52593 335 ft 8 kts 178°
2026-05-05 15:31 50.03360 8.52593 336 ft 0 kts 178°
2026-05-05 15:32 50.03288 8.52595 334 ft 40 kts 179°
2026-05-05 15:32 50.02717 8.52600 336 ft 119 kts 179°
2026-05-05 15:32 50.01701 8.52609 389 ft 167 kts 180°
2026-05-05 15:32 50.00554 8.52640 1161 ft 163 kts 181°
2026-05-05 15:33 49.99409 8.52649 1840 ft 171 kts 183°
2026-05-05 15:33 49.98137 8.52648 2242 ft 195 kts 181°
2026-05-05 15:33 49.96768 8.53210 2639 ft 223 kts 148°
2026-05-05 15:33 49.95726 8.55115 3427 ft 236 kts 121°
2026-05-05 15:34 49.94919 8.57352 4126 ft 238 kts 121°
2026-05-05 15:34 49.94118 8.59608 4859 ft 251 kts 121°
2026-05-05 15:34 49.93242 8.62074 5414 ft 269 kts 121°
2026-05-05 15:34 49.92329 8.64647 6300 ft 274 kts 121°
2026-05-05 15:35 49.91405 8.67243 7192 ft 277 kts 121°
2026-05-05 15:35 49.90468 8.69865 8124 ft 279 kts 121°
2026-05-05 15:35 49.89516 8.72512 9056 ft 282 kts 121°
2026-05-05 15:35 49.88555 8.75177 9956 ft 285 kts 121°
2026-05-05 15:36 49.87552 8.77943 10354 ft 306 kts 121°
2026-05-05 15:36 49.86467 8.80927 10622 ft 329 kts 121°
2026-05-05 15:36 49.85325 8.84085 11164 ft 340 kts 121°
2026-05-05 15:36 49.84163 8.87305 11899 ft 344 kts 121°
2026-05-05 15:37 49.82983 8.90560 12656 ft 348 kts 121°
2026-05-05 15:37 49.81788 8.93849 13403 ft 352 kts 121°
2026-05-05 15:37 49.80579 8.97165 14090 ft 356 kts 121°
2026-05-05 15:37 49.79370 9.00474 14744 ft 359 kts 121°
2026-05-05 15:38 49.78134 9.03854 15419 ft 362 kts 121°
2026-05-05 15:38 49.76897 9.07265 16066 ft 366 kts 120°
2026-05-05 15:38 49.75927 9.10942 16706 ft 372 kts 108°
2026-05-05 15:38 49.75277 9.14838 17331 ft 375 kts 109°
2026-05-05 15:39 49.74296 9.18578 17966 ft 376 kts 120°
2026-05-05 15:39 49.72870 9.21975 18531 ft 378 kts 130°
2026-05-05 15:39 49.71144 9.25040 19103 ft 380 kts 133°
2026-05-05 15:39 49.69389 9.28122 19675 ft 383 kts 133°
2026-05-05 15:40 49.67626 9.31228 20255 ft 386 kts 133°
2026-05-05 15:40 49.65849 9.34357 20822 ft 389 kts 133°
2026-05-05 15:40 49.64061 9.37503 21370 ft 392 kts 133°
2026-05-05 15:40 49.62192 9.40567 21891 ft 393 kts 139°
2026-05-05 15:41 49.60008 9.43124 22408 ft 395 kts 149°
2026-05-05 15:41 49.57645 9.45284 22919 ft 397 kts 150°
2026-05-05 15:41 49.55255 9.47461 23400 ft 400 kts 150°
2026-05-05 15:41 49.52859 9.49650 23825 ft 402 kts 150°
2026-05-05 15:42 49.50436 9.51860 24256 ft 404 kts 150°
2026-05-05 15:42 49.48013 9.54071 24685 ft 406 kts 150°
2026-05-05 15:42 49.45579 9.56292 25101 ft 408 kts 150°
2026-05-05 15:42 49.43136 9.58516 25522 ft 409 kts 150°
2026-05-05 15:43 49.40703 9.60728 25938 ft 411 kts 150°
2026-05-05 15:43 49.38240 9.62964 26342 ft 413 kts 150°
2026-05-05 15:43 49.35756 9.65217 26743 ft 415 kts 149°
2026-05-05 15:43 49.33412 9.67794 27152 ft 418 kts 140°
2026-05-05 15:44 49.31312 9.70900 27558 ft 420 kts 136°
2026-05-05 15:44 49.29244 9.74088 27957 ft 422 kts 136°
2026-05-05 15:44 49.27167 9.77277 28342 ft 424 kts 136°
2026-05-05 15:44 49.25078 9.80472 28693 ft 426 kts 137°
2026-05-05 15:45 49.23681 9.82599 28927 ft 428 kts 137°
2026-05-05 15:45 49.21560 9.85817 29278 ft 430 kts 137°
2026-05-05 15:45 49.19434 9.89036 29622 ft 432 kts 137°
2026-05-05 15:45 49.17295 9.92277 29960 ft 433 kts 137°
2026-05-05 15:46 49.15151 9.95524 30249 ft 435 kts 137°
2026-05-05 15:46 49.13001 9.98777 30584 ft 435 kts 137°
2026-05-05 15:46 49.10851 10.02020 31017 ft 433 kts 137°
2026-05-05 15:46 49.08708 10.05249 31439 ft 432 kts 137°
2026-05-05 15:47 49.06574 10.08464 31851 ft 431 kts 137°
2026-05-05 15:47 49.04431 10.11634 32262 ft 430 kts 139°
2026-05-05 15:47 49.02257 10.14748 32668 ft 428 kts 139°
2026-05-05 15:47 49.00066 10.17821 33052 ft 428 kts 140°
2026-05-05 15:48 48.97870 10.20875 33448 ft 427 kts 140°
2026-05-05 15:48 48.95679 10.23924 33859 ft 426 kts 140°
2026-05-05 15:48 48.93497 10.26974 34206 ft 426 kts 140°
2026-05-05 15:48 48.91315 10.30043 34516 ft 427 kts 140°
2026-05-05 15:49 48.89140 10.33116 34813 ft 428 kts 140°
2026-05-05 15:49 48.86958 10.36201 35089 ft 429 kts 140°
2026-05-05 15:49 48.84768 10.39290 35364 ft 430 kts 140°
2026-05-05 15:49 48.82573 10.42392 35606 ft 431 kts 140°
2026-05-05 15:50 48.80435 10.45594 35813 ft 434 kts 138°
2026-05-05 15:50 48.78343 10.48919 36035 ft 436 kts 137°
2026-05-05 15:50 48.76280 10.52300 36222 ft 437 kts 137°
2026-05-05 15:50 48.74221 10.55702 36429 ft 439 kts 136°
2026-05-05 15:51 48.72151 10.59102 36646 ft 439 kts 137°
2026-05-05 15:51 48.70065 10.62487 36811 ft 440 kts 137°
2026-05-05 15:51 48.67989 10.65812 36852 ft 440 kts 137°
2026-05-05 15:52 48.63762 10.72509 36838 ft 440 kts 138°
2026-05-05 15:52 48.59533 10.79203 36839 ft 440 kts 138°
2026-05-05 15:53 48.55309 10.85904 36829 ft 441 kts 138°
2026-05-05 15:53 48.51092 10.92652 36840 ft 443 kts 137°
2026-05-05 15:54 48.46859 10.99409 36841 ft 443 kts 138°
2026-05-05 15:54 48.42570 11.06105 36841 ft 443 kts 139°
2026-05-05 15:55 48.38265 11.12744 36840 ft 443 kts 139°
2026-05-05 15:55 48.33971 11.19398 36837 ft 443 kts 139°
2026-05-05 15:56 48.29670 11.26050 36810 ft 444 kts 139°
2026-05-05 15:56 48.25644 11.33054 36817 ft 451 kts 127°
2026-05-05 15:57 48.22482 11.41238 36819 ft 454 kts 124°
2026-05-05 15:57 48.19318 11.49438 36824 ft 454 kts 124°
2026-05-05 15:58 48.16130 11.57628 36821 ft 455 kts 124°
2026-05-05 15:58 48.12940 11.65801 36805 ft 455 kts 124°
2026-05-05 15:59 48.09746 11.74002 36799 ft 456 kts 124°
2026-05-05 15:59 48.06545 11.82187 36789 ft 456 kts 124°
2026-05-05 16:00 48.03333 11.90351 36774 ft 456 kts 124°
2026-05-05 16:00 48.00115 11.98530 36739 ft 457 kts 124°
2026-05-05 16:01 47.96877 12.06717 36744 ft 458 kts 124°
2026-05-05 16:01 47.93456 12.14695 36738 ft 454 kts 134°
2026-05-05 16:02 47.88933 12.21093 36747 ft 447 kts 144°
2026-05-05 16:02 47.84165 12.27039 36739 ft 447 kts 144°
2026-05-05 16:03 47.79430 12.32966 36744 ft 448 kts 144°
2026-05-05 16:03 47.74662 12.38923 36726 ft 447 kts 144°
2026-05-05 16:04 47.69878 12.44872 36736 ft 448 kts 144°
2026-05-05 16:04 47.65089 12.50809 36740 ft 449 kts 144°
2026-05-05 16:05 47.60242 12.56656 36757 ft 448 kts 147°
2026-05-05 16:05 47.55232 12.62126 36734 ft 445 kts 149°
2026-05-05 16:06 47.50171 12.67472 36745 ft 449 kts 149°
2026-05-05 16:06 47.45098 12.72903 36754 ft 451 kts 148°
2026-05-05 16:07 47.40035 12.78405 36776 ft 452 kts 148°
2026-05-05 16:07 47.34964 12.83920 36791 ft 454 kts 148°
2026-05-05 16:08 47.29904 12.89375 36825 ft 454 kts 148°
2026-05-05 16:08 47.24800 12.94853 36806 ft 454 kts 147°
2026-05-05 16:09 47.19701 13.00326 36841 ft 454 kts 148°
2026-05-05 16:09 47.14589 13.05798 36847 ft 454 kts 147°
2026-05-05 16:10 47.09472 13.11258 36890 ft 454 kts 148°
2026-05-05 16:10 47.04355 13.16701 36894 ft 454 kts 148°
2026-05-05 16:11 46.99248 13.22135 36924 ft 453 kts 148°
2026-05-05 16:12 46.89045 13.32937 36933 ft 453 kts 148°
2026-05-05 16:13 46.76254 13.46403 36940 ft 453 kts 148°
2026-05-05 16:13 46.71158 13.51741 36948 ft 453 kts 148°
2026-05-05 16:14 46.60893 13.62475 36960 ft 454 kts 148°
2026-05-05 16:15 46.50621 13.73187 36983 ft 455 kts 148°
2026-05-05 16:16 46.40588 13.84435 36980 ft 456 kts 146°
2026-05-05 16:17 46.33050 13.92867 36999 ft 457 kts 147°
2026-05-05 16:18 46.25497 14.01194 37007 ft 457 kts 147°
2026-05-05 16:19 46.17918 14.09547 36991 ft 457 kts 146°
2026-05-05 16:19 46.10355 14.17843 36992 ft 457 kts 146°
2026-05-05 16:20 46.00212 14.28939 36993 ft 458 kts 147°
2026-05-05 16:22 45.87485 14.42781 36995 ft 460 kts 146°
2026-05-05 16:23 45.77265 14.53864 37002 ft 461 kts 147°
2026-05-05 16:23 45.69576 14.62142 37003 ft 461 kts 147°
2026-05-05 16:24 45.64447 14.67650 36995 ft 461 kts 146°
2026-05-05 16:25 45.56763 14.75886 36991 ft 462 kts 146°
2026-05-05 16:25 45.49028 14.84142 36993 ft 463 kts 146°
2026-05-05 16:26 45.38773 14.95309 37002 ft 465 kts 145°
2026-05-05 16:27 45.33677 15.00971 36986 ft 465 kts 145°
2026-05-05 16:27 45.28563 15.06612 36988 ft 466 kts 146°
2026-05-05 16:28 45.23425 15.12223 36993 ft 466 kts 146°
2026-05-05 16:28 45.18288 15.17816 36994 ft 465 kts 146°
2026-05-05 16:29 45.13182 15.23373 36987 ft 465 kts 146°
2026-05-05 16:29 45.08049 15.28967 36998 ft 465 kts 146°
2026-05-05 16:30 45.02916 15.34546 37008 ft 465 kts 146°
2026-05-05 16:30 44.97779 15.40118 37012 ft 465 kts 146°
2026-05-05 16:31 44.92642 15.45655 37018 ft 465 kts 146°
2026-05-05 16:31 44.87494 15.51188 37015 ft 465 kts 146°
2026-05-05 16:32 44.82349 15.56719 37034 ft 465 kts 146°
2026-05-05 16:32 44.77210 15.62241 37041 ft 464 kts 146°
2026-05-05 16:33 44.72931 15.66818 37052 ft 465 kts 146°
2026-05-05 16:33 44.66949 15.73203 37033 ft 464 kts 146°
2026-05-05 16:34 44.62636 15.77800 37034 ft 465 kts 146°
2026-05-05 16:34 44.57476 15.83277 37045 ft 465 kts 147°
2026-05-05 16:35 44.52309 15.88749 37043 ft 465 kts 146°
2026-05-05 16:35 44.47140 15.94223 37049 ft 465 kts 146°
2026-05-05 16:36 44.41974 15.99694 37026 ft 466 kts 146°
2026-05-05 16:36 44.36788 16.05163 37038 ft 466 kts 146°
2026-05-05 16:37 44.31637 16.10569 37043 ft 466 kts 147°
2026-05-05 16:37 44.26450 16.15994 37051 ft 466 kts 147°
2026-05-05 16:38 44.21258 16.21418 37042 ft 466 kts 147°
2026-05-05 16:38 44.16069 16.26842 37045 ft 467 kts 147°
2026-05-05 16:39 44.10867 16.32273 37050 ft 467 kts 147°
2026-05-05 16:39 44.05654 16.37688 37060 ft 467 kts 147°
2026-05-05 16:40 44.00442 16.43089 37062 ft 467 kts 147°
2026-05-05 16:40 43.95255 16.48450 37059 ft 468 kts 147°
2026-05-05 16:41 43.90029 16.53847 37058 ft 468 kts 147°
2026-05-05 16:41 43.84808 16.59235 37061 ft 468 kts 147°
2026-05-05 16:42 43.79575 16.64608 37061 ft 469 kts 147°
2026-05-05 16:42 43.74331 16.69976 37059 ft 469 kts 147°
2026-05-05 16:43 43.69075 16.75349 37051 ft 470 kts 147°
2026-05-05 16:43 43.63814 16.80725 37050 ft 471 kts 147°
2026-05-05 16:44 43.58531 16.86105 37054 ft 472 kts 147°
2026-05-05 16:44 43.53244 16.91473 37051 ft 472 kts 147°
2026-05-05 16:45 43.47990 16.96806 37051 ft 472 kts 147°
2026-05-05 16:45 43.42699 17.02171 37056 ft 472 kts 147°
2026-05-05 16:46 43.37407 17.07511 37054 ft 473 kts 147°
2026-05-05 16:46 43.32089 17.12863 37049 ft 474 kts 147°
2026-05-05 16:47 43.26768 17.18223 37039 ft 474 kts 147°
2026-05-05 16:47 43.21434 17.23569 37050 ft 474 kts 147°
2026-05-05 16:48 43.16131 17.28868 37062 ft 474 kts 147°
2026-05-05 16:48 43.10797 17.34191 37070 ft 474 kts 147°
2026-05-05 16:49 43.05461 17.39500 37064 ft 474 kts 148°
2026-05-05 16:49 43.00115 17.44826 36746 ft 479 kts 147°
2026-05-05 16:50 42.97415 17.47506 36084 ft 479 kts 147°
2026-05-05 16:50 42.94717 17.50177 35463 ft 479 kts 148°
2026-05-05 16:50 42.92090 17.52997 34838 ft 483 kts 141°
2026-05-05 16:50 42.89737 17.56290 34236 ft 487 kts 132°
2026-05-05 16:51 42.87718 17.60029 33577 ft 491 kts 125°
2026-05-05 16:51 42.85845 17.63917 32918 ft 492 kts 125°
2026-05-05 16:51 42.83957 17.67827 32258 ft 494 kts 125°
2026-05-05 16:51 42.82066 17.71727 31616 ft 495 kts 125°
2026-05-05 16:52 42.80178 17.75596 31004 ft 496 kts 125°
2026-05-05 16:52 42.78234 17.79557 30386 ft 498 kts 125°
2026-05-05 16:52 42.76308 17.83474 29728 ft 497 kts 125°
2026-05-05 16:52 42.74416 17.87321 29041 ft 492 kts 125°
2026-05-05 16:53 42.72529 17.91162 28369 ft 486 kts 125°
2026-05-05 16:53 42.70661 17.94958 27708 ft 480 kts 125°
2026-05-05 16:53 42.68817 17.98704 27063 ft 473 kts 125°
2026-05-05 16:53 42.66998 18.02398 26436 ft 467 kts 126°
2026-05-05 16:54 42.65197 18.06048 25815 ft 461 kts 126°
2026-05-05 16:54 42.63422 18.09648 25211 ft 456 kts 126°
2026-05-05 16:54 42.61666 18.13205 24619 ft 450 kts 126°
2026-05-05 16:54 42.59933 18.16708 24042 ft 445 kts 126°
2026-05-05 16:55 42.58214 18.20177 23440 ft 439 kts 126°
2026-05-05 16:55 42.56520 18.23590 22762 ft 435 kts 126°
2026-05-05 16:55 42.54833 18.26979 22085 ft 432 kts 126°
2026-05-05 16:55 42.53153 18.30346 21437 ft 430 kts 126°
2026-05-05 16:56 42.51478 18.33695 20813 ft 428 kts 126°
2026-05-05 16:56 42.49810 18.37027 20199 ft 427 kts 126°
2026-05-05 16:56 42.48147 18.40353 19592 ft 426 kts 126°
2026-05-05 16:56 42.46478 18.43690 18998 ft 426 kts 126°
2026-05-05 16:57 42.44814 18.47015 18410 ft 426 kts 126°
2026-05-05 16:57 42.43154 18.50334 17770 ft 425 kts 126°
2026-05-05 16:57 42.41513 18.53611 17123 ft 424 kts 126°
2026-05-05 16:57 42.39865 18.56892 16478 ft 417 kts 126°
2026-05-05 16:58 42.38261 18.60089 15847 ft 404 kts 126°
2026-05-05 16:58 42.36703 18.63191 15232 ft 392 kts 126°
2026-05-05 16:58 42.35188 18.66204 14632 ft 380 kts 127°
2026-05-05 16:58 42.33732 18.69092 14048 ft 370 kts 127°
2026-05-05 16:59 42.32297 18.71933 13405 ft 361 kts 127°
2026-05-05 16:59 42.30892 18.74708 12753 ft 353 kts 127°
2026-05-05 16:59 42.29525 18.77409 12090 ft 344 kts 127°
2026-05-05 16:59 42.28215 18.80065 11453 ft 335 kts 122°
2026-05-05 17:00 42.27178 18.82860 10836 ft 328 kts 118°
2026-05-05 17:00 42.26203 18.85568 10244 ft 321 kts 118°
2026-05-05 17:00 42.25232 18.88246 9609 ft 314 kts 118°
2026-05-05 17:00 42.24275 18.90880 8962 ft 308 kts 118°
2026-05-05 17:01 42.23335 18.93459 8323 ft 303 kts 118°
2026-05-05 17:01 42.22356 18.95942 7689 ft 295 kts 128°
2026-05-05 17:01 42.20848 18.97677 7085 ft 286 kts 157°
2026-05-05 17:01 42.18943 18.98209 6478 ft 279 kts 185°
2026-05-05 17:02 42.17126 18.97469 5844 ft 273 kts 212°
2026-05-05 17:02 42.15788 18.95705 5204 ft 269 kts 238°
2026-05-05 17:02 42.15196 18.93346 4572 ft 267 kts 265°
2026-05-05 17:02 42.15403 18.90889 4085 ft 259 kts 281°
2026-05-05 17:03 42.15776 18.88615 3978 ft 236 kts 284°
2026-05-05 17:03 42.16488 18.86762 3985 ft 220 kts 308°
2026-05-05 17:03 42.17641 18.85518 3979 ft 208 kts 332°
2026-05-05 17:03 42.18954 18.84827 4024 ft 198 kts 338°
2026-05-05 17:04 42.20238 18.84169 3986 ft 195 kts 337°
2026-05-05 17:04 42.21491 18.83522 3981 ft 195 kts 337°
2026-05-05 17:04 42.22767 18.82858 3722 ft 197 kts 337°
2026-05-05 17:04 42.24043 18.82196 3454 ft 194 kts 337°
2026-05-05 17:05 42.25289 18.81553 3192 ft 193 kts 338°
2026-05-05 17:05 42.26538 18.80910 2926 ft 192 kts 338°
2026-05-05 17:05 42.27784 18.80268 2669 ft 190 kts 339°
2026-05-05 17:05 42.29010 18.79633 2411 ft 186 kts 339°
2026-05-05 17:06 42.30187 18.79022 2148 ft 175 kts 339°
2026-05-05 17:06 42.31255 18.78468 1901 ft 155 kts 339°
2026-05-05 17:06 42.32215 18.77969 1698 ft 142 kts 340°
2026-05-05 17:06 42.33137 18.77492 1473 ft 143 kts 341°
2026-05-05 17:07 42.34072 18.77027 1323 ft 146 kts 342°
2026-05-05 17:07 42.35035 18.76554 1121 ft 148 kts 342°
2026-05-05 17:07 42.35995 18.76095 870 ft 146 kts 341°
2026-05-05 17:07 42.36950 18.75648 662 ft 144 kts 342°
2026-05-05 17:08 42.37878 18.75191 483 ft 143 kts 339°
2026-05-05 17:08 42.38687 18.74449 299 ft 141 kts 319°
2026-05-05 17:08 42.39422 18.73567 105 ft 141 kts 320°
2026-05-05 17:08 42.40134 18.72725 16 ft 122 kts 319°
2026-05-05 17:09 42.40662 18.72095 11 ft 77 kts 319°
2026-05-05 17:09 42.40961 18.71742 14 ft 49 kts 319°
2026-05-05 17:09 42.41166 18.71503 12 ft 27 kts 319°
2026-05-05 17:09 42.41272 18.71379 11 ft 12 kts 323°
2026-05-05 17:10 42.41347 18.71389 10 ft 11 kts 43°
2026-05-05 17:10 42.41348 18.71478 10 ft 11 kts 138°
2026-05-05 17:10 42.41300 18.71533 11 ft 8 kts 140°
2026-05-05 17:10 42.41259 18.71578 12 ft 6 kts 140°
2026-05-05 17:11 42.41275 18.71627 12 ft 5 kts 58°
2026-05-05 17:11 42.41266 18.71652 13 ft 3 kts 157°
2026-05-05 17:11 42.41251 18.71652 13 ft 1 kts 173°
2026-05-05 17:11 42.41250 18.71652 13 ft 0 kts 173°